Location: Moscow
(55.7500°N, 37.5830°E)
Time: 21:11:37
(UTC+03:00)

Tiros 1 despin weight - All Passes

Search period start: 06 December 2021 00:00
Search period end: 16 December 2021 00:00
Orbit: 593 x 641 km, 48.2° (Epoch: 05 December)

Date Brightness Start Highest point End Pass type
(mag) Time Alt. Az. Time Alt. Az. Time Alt. Az.
06 Dec - 12:22:21 10° SSE 12:23:08 10° SE 12:23:56 10° SE daylight
06 Dec - 13:59:59 10° SW 14:03:34 24° SSE 14:07:08 10° ESE daylight
06 Dec - 15:40:27 10° WSW 15:44:20 31° S 15:48:14 10° ESE daylight
06 Dec - 17:21:46 10° WSW 17:25:04 21° SSW 17:28:23 10° SSE visible
07 Dec - 12:36:09 10° S 12:38:48 16° SSE 12:41:28 10° ESE daylight
07 Dec - 14:15:36 10° SW 14:19:25 29° S 14:23:13 10° ESE daylight
07 Dec - 15:56:26 10° WSW 16:00:14 28° S 16:04:01 10° SE daylight
07 Dec - 17:38:14 10° WSW 17:40:50 15° SSW 17:43:25 10° S visible
08 Dec - 12:51:13 10° SSW 12:54:34 21° SSE 12:57:55 10° ESE daylight
08 Dec - 14:31:24 10° WSW 14:35:18 31° S 14:39:11 10° ESE daylight
08 Dec - 16:12:31 10° WSW 16:16:05 24° SSW 16:19:38 10° SE daylight
08 Dec - 17:55:59 10° SW 17:56:29 10° SW 17:57:00 10° SSW visible
09 Dec - 11:27:59 10° S 11:29:53 13° SSE 11:31:47 10° ESE daylight
09 Dec - 13:06:41 10° SW 13:10:23 26° SSE 13:14:05 10° ESE daylight
09 Dec - 14:47:19 10° WSW 14:51:12 30° S 14:55:03 10° SE daylight
09 Dec - 16:28:47 10° WSW 16:31:52 19° SSW 16:34:58 10° SSE daylight
10 Dec - 11:42:34 10° SSW 11:45:35 18° SSE 11:48:35 10° ESE daylight
10 Dec - 13:22:23 10° SW 13:26:15 30° S 13:30:07 10° ESE daylight
10 Dec - 15:03:20 10° WSW 15:07:04 27° SSW 15:10:46 10° SE daylight
10 Dec - 16:45:28 10° WSW 16:47:35 13° SSW 16:49:42 10° S visible
11 Dec - 11:57:49 10° SW 12:01:22 23° SSE 12:04:54 10° ESE daylight
11 Dec - 13:38:13 10° WSW 13:42:09 31° S 13:46:03 10° ESE daylight
11 Dec - 15:19:28 10° WSW 15:22:54 22° SSW 15:26:18 10° SSE daylight
12 Dec - 10:34:08 10° S 10:36:38 15° SSE 10:39:07 10° ESE daylight
12 Dec - 12:13:24 10° SW 12:17:12 28° SSE 12:20:59 10° ESE daylight
12 Dec - 13:54:11 10° WSW 13:58:02 29° S 14:01:51 10° SE daylight
12 Dec - 15:35:51 10° WSW 15:38:39 17° SSW 15:41:26 10° SSE daylight
13 Dec - 10:49:04 10° SSW 10:52:22 20° SSE 10:55:38 10° ESE daylight
13 Dec - 12:29:10 10° WSW 12:33:06 31° S 12:36:59 10° ESE daylight
13 Dec - 14:10:14 10° WSW 14:13:52 25° SSW 14:17:30 10° SE daylight
13 Dec - 15:52:58 10° SW 15:54:19 11° SW 15:55:41 10° SSW daylight
14 Dec - 09:26:07 10° SSE 09:27:42 12° SE 09:29:16 10° SE daylight
14 Dec - 11:04:28 10° SW 11:08:10 26° SSE 11:11:50 10° ESE daylight
14 Dec - 12:45:02 10° WSW 12:48:58 31° S 12:52:52 10° ESE daylight
14 Dec - 14:26:27 10° WSW 14:29:41 20° SSW 14:32:54 10° SSE daylight
15 Dec - 09:40:28 10° SSW 09:43:23 17° SSE 09:46:17 10° ESE daylight
15 Dec - 11:20:08 10° SW 11:24:01 30° S 11:27:53 10° ESE daylight
15 Dec - 13:01:02 10° WSW 13:04:51 28° SSW 13:08:38 10° SE daylight
15 Dec - 14:42:59 10° WSW 14:45:24 14° SSW 14:47:48 10° S daylight
